Heubes-Wetterstation in 44289 Dortmund
Heubes-Wetterstation

Messwerte der letzten 60 Minuten im Minuten-Intervall (Wetterstation 44289 Dortmund)

Datum & Uhrzeit Temp. Feucht. Wind-Ø Böen Sekt.  Regen Rate Luftdruck
17.12.2018 - 08:223.7 °C92%3 km/h 0 km/h SO0.0 mm 0.0 mm 1016.2 hPa, gleichbleibend
17.12.2018 - 08:213.7 °C92%3 km/h 13 km/h S-SO0.0 mm 0.0 mm 1016.2 hPa, gleichbleibend
17.12.2018 - 08:203.7 °C92%3 km/h 7 km/h S-SO0.0 mm 0.0 mm 1016.2 hPa, gleichbleibend
17.12.2018 - 08:193.7 °C92%3 km/h 10 km/h S-SO0.0 mm 0.0 mm 1016.2 hPa, gleichbleibend
17.12.2018 - 08:183.7 °C92%3 km/h 1 km/h S-SO0.0 mm 0.0 mm 1016.2 hPa, gleichbleibend
17.12.2018 - 08:173.6 °C92%3 km/h 3 km/h S-SO0.0 mm 0.0 mm 1016.2 hPa, gleichbleibend
17.12.2018 - 08:163.6 °C92%3 km/h 11 km/h SO0.0 mm 0.0 mm 1016.2 hPa, gleichbleibend
17.12.2018 - 08:153.7 °C92%3 km/h 10 km/h S-SO0.0 mm 0.0 mm 1016.2 hPa, langsam steigend
17.12.2018 - 08:143.6 °C92%3 km/h 11 km/h SO0.0 mm 0.0 mm 1016.1 hPa, gleichbleibend
17.12.2018 - 08:133.6 °C92%3 km/h 8 km/h SO0.0 mm 0.0 mm 1016.1 hPa, gleichbleibend
17.12.2018 - 08:123.7 °C92%3 km/h 8 km/h SO0.0 mm 0.0 mm 1016.1 hPa, gleichbleibend
17.12.2018 - 08:113.7 °C92%3 km/h 7 km/h SO0.0 mm 0.0 mm 1016.1 hPa, langsam fallend
17.12.2018 - 08:103.6 °C92%3 km/h 14 km/h SO0.0 mm 0.0 mm 1016.2 hPa, gleichbleibend
17.12.2018 - 08:093.7 °C92%3 km/h 14 km/h S-SO0.0 mm 0.0 mm 1016.2 hPa, gleichbleibend
17.12.2018 - 08:083.7 °C92%3 km/h 7 km/h S-SO0.0 mm 0.0 mm 1016.2 hPa, gleichbleibend
17.12.2018 - 08:073.7 °C92%3 km/h 11 km/h S-SO0.2 mm 0.0 mm 1016.2 hPa, gleichbleibend
17.12.2018 - 08:063.7 °C92%3 km/h 14 km/h S-SO0.0 mm 0.0 mm 1016.2 hPa, gleichbleibend
17.12.2018 - 08:053.7 °C92%3 km/h 7 km/h S-SO0.0 mm 0.0 mm 1016.2 hPa, gleichbleibend
17.12.2018 - 08:043.7 °C92%2 km/h 8 km/h S-SO0.0 mm 0.0 mm 1016.2 hPa, gleichbleibend
17.12.2018 - 08:033.7 °C92%1 km/h 14 km/h SO0.0 mm 0.0 mm 1016.2 hPa, gleichbleibend
17.12.2018 - 08:023.7 °C92%1 km/h 7 km/h SO0.0 mm 0.0 mm 1016.2 hPa, gleichbleibend
17.12.2018 - 08:013.7 °C92%1 km/h 11 km/h S0.0 mm 0.0 mm 1016.2 hPa, gleichbleibend
17.12.2018 - 08:003.7 °C92%1 km/h 7 km/h S-SO0.0 mm 0.0 mm 1016.2 hPa, gleichbleibend
17.12.2018 - 07:593.6 °C92%1 km/h 5 km/h S0.0 mm 0.0 mm 1016.2 hPa, langsam steigend
17.12.2018 - 07:583.6 °C92%2 km/h 10 km/h S-SO0.0 mm 0.0 mm 1016.1 hPa, gleichbleibend
17.12.2018 - 07:573.6 °C92%3 km/h 5 km/h S-SO0.0 mm 0.0 mm 1016.1 hPa, langsam steigend
17.12.2018 - 07:563.6 °C92%3 km/h 8 km/h S-SO0.0 mm 0.0 mm 1016.0 hPa, gleichbleibend
17.12.2018 - 07:553.6 °C92%3 km/h 8 km/h S-SO0.0 mm 0.0 mm 1016.0 hPa, gleichbleibend
17.12.2018 - 07:543.6 °C92%3 km/h 10 km/h S-SO0.0 mm 0.0 mm 1016.0 hPa, gleichbleibend
17.12.2018 - 07:533.6 °C92%3 km/h 3 km/h S0.0 mm 0.0 mm 1016.0 hPa, gleichbleibend
17.12.2018 - 07:523.6 °C92%3 km/h 7 km/h S0.0 mm 0.0 mm 1016.0 hPa, gleichbleibend
17.12.2018 - 07:513.6 °C92%3 km/h 7 km/h SO0.0 mm 0.0 mm 1016.0 hPa, gleichbleibend
17.12.2018 - 07:503.6 °C92%3 km/h 8 km/h S-SO0.0 mm 0.0 mm 1016.0 hPa, gleichbleibend
17.12.2018 - 07:493.6 °C92%3 km/h 7 km/h S-SO0.0 mm 0.0 mm 1016.0 hPa, gleichbleibend
17.12.2018 - 07:483.6 °C92%3 km/h 7 km/h SO0.0 mm 0.0 mm 1016.0 hPa, gleichbleibend
17.12.2018 - 07:473.6 °C92%3 km/h 13 km/h S-SO0.0 mm 0.0 mm 1016.0 hPa, gleichbleibend
17.12.2018 - 07:463.6 °C92%3 km/h 7 km/h S-SO0.0 mm 0.0 mm 1016.0 hPa, langsam steigend
17.12.2018 - 07:453.5 °C92%3 km/h 5 km/h SO0.0 mm 0.0 mm 1015.9 hPa, langsam steigend
17.12.2018 - 07:443.5 °C92%3 km/h 7 km/h SO0.0 mm 0.0 mm 1015.8 hPa, gleichbleibend
17.12.2018 - 07:433.5 °C92%3 km/h 7 km/h NO0.0 mm 0.0 mm 1015.8 hPa, gleichbleibend
17.12.2018 - 07:423.5 °C92%3 km/h 8 km/h O-SO0.0 mm 0.0 mm 1015.8 hPa, gleichbleibend
17.12.2018 - 07:413.5 °C92%3 km/h 10 km/h SO0.0 mm 0.0 mm 1015.8 hPa, gleichbleibend
17.12.2018 - 07:403.5 °C92%3 km/h 13 km/h O0.0 mm 0.0 mm 1015.8 hPa, langsam fallend
17.12.2018 - 07:393.4 °C92%3 km/h 5 km/h S-SO0.0 mm 0.0 mm 1015.9 hPa, langsam steigend
17.12.2018 - 07:383.4 °C92%2 km/h 8 km/h SO0.0 mm 0.0 mm 1015.8 hPa, gleichbleibend
17.12.2018 - 07:373.4 °C92%1 km/h 8 km/h S-SO0.0 mm 0.0 mm 1015.8 hPa, gleichbleibend
17.12.2018 - 07:363.4 °C92%1 km/h 8 km/h S-SO0.0 mm 0.0 mm 1015.8 hPa, gleichbleibend
17.12.2018 - 07:353.4 °C92%1 km/h 13 km/h SO0.0 mm 0.0 mm 1015.8 hPa, gleichbleibend
17.12.2018 - 07:343.4 °C92%1 km/h 14 km/h S-SO0.0 mm 0.0 mm 1015.8 hPa, gleichbleibend
17.12.2018 - 07:333.4 °C92%1 km/h 11 km/h S0.0 mm 0.0 mm 1015.8 hPa, gleichbleibend
17.12.2018 - 07:323.4 °C92%1 km/h 0 km/h SO0.0 mm 0.0 mm 1015.8 hPa, gleichbleibend
17.12.2018 - 07:313.4 °C92%1 km/h 13 km/h SO0.0 mm 0.0 mm 1015.8 hPa, gleichbleibend
17.12.2018 - 07:303.3 °C92%1 km/h 8 km/h SO0.0 mm 0.0 mm 1015.8 hPa, gleichbleibend
17.12.2018 - 07:293.3 °C92%1 km/h 1 km/h S-SO0.0 mm 0.0 mm 1015.8 hPa, gleichbleibend
17.12.2018 - 07:283.3 °C92%1 km/h 7 km/h SO0.0 mm 0.0 mm 1015.7 hPa, gleichbleibend
17.12.2018 - 07:273.3 °C92%1 km/h 7 km/h O-SO0.0 mm 0.0 mm 1015.8 hPa, gleichbleibend
17.12.2018 - 07:263.3 °C92%1 km/h 10 km/h S-SO0.0 mm 0.0 mm 1015.7 hPa, gleichbleibend
17.12.2018 - 07:253.3 °C92%1 km/h 13 km/h O-SO0.0 mm 0.0 mm 1015.8 hPa, gleichbleibend
17.12.2018 - 07:243.2 °C92%1 km/h 5 km/h O-SO0.0 mm 0.0 mm 1015.8 hPa, gleichbleibend
17.12.2018 - 07:233.2 °C92%1 km/h 3 km/h S-SO0.0 mm 0.0 mm 1015.8 hPa, gleichbleibend